Preview of NWS' New Version of Forecast
This preview is not operational and should not be used for support decisions.

Regional Weather Roundup (RWR)

Issued by Philadelphia/Mt Holly (PHI)

                            
000
ASUS41 KPHI 180712
RWRPHI

REGIONAL WEATHER ROUNDUP
NATIONAL WEATHER SERVICE MOUNT HOLLY NJ
300 AM EDT WED SEP 18 2019

NOTE:  "FAIR" INDICATES FEW OR NO CLOUDS BELOW 12,000 FEET WITH NO
SIGNIFICANT WEATHER AND/OR OBSTRUCTIONS TO VISIBILITY.

 * = STATION DOES NOT REPORT PRECIPITATION (E.G. RAIN, SNOW, ETC.) 
        OR FOG.

NJZ015>026-180800-
SOUTHERN NEW JERSEY
  
CITY           SKY/WX    TMP DP  RH WIND       PRES   REMARKS
POMONA         FAIR      55  50  83 NW3       30.14S                  
WILDWOOD*      FAIR      56  53  90 N3        30.14S                  
MILLVILLE      FAIR      54  50  86 CALM      30.14S                  
MOUNT HOLLY    FAIR      53  51  93 CALM      30.15S                  
TRENTON        FAIR      55  46  71 N6        30.16S                  

$$
NJZ001>014-180800-
NORTHERN NEW JERSEY
  
CITY           SKY/WX    TMP DP  RH WIND       PRES   REMARKS
SUSSEX         FAIR      46  44  93 CALM      30.20S                  
ANDOVER*         N/A     50  48  93 CALM      30.19S                  
MORRISTOWN     FAIR      46  46 100 CALM      30.18R                  
NEWARK         FAIR      57  47  69 N7        30.16F                  
TETERBORO      FAIR      58  49  72 N5        30.16S                  
CALDWELL       FAIR      55  47  74 CALM      30.19R                  
SOMERVILLE     FAIR      50  48  93 CALM      30.16S                  
ALLAIRE*       FAIR      55  52  89 N3        30.16S                  
TOMS RIVER*    FAIR      51  32  48 CALM      30.16R                  

$$
PAZ043-044-047-054-055-060>062-066>071-180800-
EASTERN PENNSYLVANIA
  
CITY           SKY/WX    TMP DP  RH WIND       PRES   REMARKS
PHILADELPHIA   FAIR      60  53  77 NW6       30.16S                  
NORTH PHILA    FAIR      58  48  69 CALM      30.17S                  
BLUE BELL*     FAIR      49  49  98 CALM      30.17S                  
DOYLESTOWN     FAIR      55  48  77 CALM      30.16S                  
QUAKERTOWN*    CLEAR     50  50 100 CALM      30.17S                  
PERKASIE*      FAIR      48  48 100 CALM      30.18S                  
POTTSTOWN      FAIR      50  50 100 CALM      30.18S                  
LANCASTER      FAIR      57  47  69 NE5       30.16S                  
COATESVILLE    FAIR      55  52  88 N3        30.18S                  
WEST CHESTER   FAIR      55  50  82 CALM      30.16S                  
READING        FAIR      57  50  77 NW5       30.16S                  
ALLENTOWN      FAIR      54  48  80 CALM      30.18R                  
QN CITY/ALNTWN FAIR      54  52  94 CALM      30.19S                  
MOUNT POCONO   FAIR      46  43  89 N6        30.20S                  
HAZLETON       FAIR      45  43  93 CALM      30.23S                  
LEHIGHTON      FAIR      43  43 100 CALM      30.20S FOG              
WILKES BARRE   FAIR      51  46  83 E5        30.21R                  

$$
DEZALL-MDZ008-012-015-019-020-180800-
DELAWARE AND EASTERN MARYLAND
  
CITY           SKY/WX    TMP DP  RH WIND       PRES   REMARKS
WILMINGTON     FAIR      57  55  93 N6        30.16S                  
CHESWOLD       SUNNY     52  52 100 CALM      30.14S                  
GEORGETOWN     FAIR      54  53  97 CALM      30.13S                  
EASTON         FAIR      57  53  89 CALM      30.17S                  
STEVENSVILLE   FAIR      57  55  94 E3        30.14S                  
PATUXENT       FAIR      65  53  65 E8        30.12S                  
OCEAN CITY     FAIR      67  54  63 E9        30.11F                  
WALLOPS ISLAND FAIR      61  53  75 N7        30.11S                  
CAMBRIDGE      CLEAR     55  54  94 CALM      30.13S                  
SALISBURY      FAIR      55  52  89 CALM      30.12S                  

$$
PAZ001-021-NYZ056-072-MDZ011-DCZ001-180800-
OTHER NEARBY LOCATIONS
  
CITY           SKY/WX    TMP DP  RH WIND       PRES   REMARKS
HARRISBURG     FAIR      61  49  64 N3        30.16S                  
WILLIAMSPORT   FAIR      53  50  89 CALM      30.20S                  
BINGHAMTON     FAIR      49  44  83 NE6       30.23S                  
NEW YORK CITY  FAIR      61  54  77 NE6       30.19S                  
BALTIMORE      FAIR      60  56  86 CALM      30.13S                  
WASHINGTON DC  FAIR      66  59  78 E6        30.14S                  

$$